Find Starlink 34019

NORAD ID: 64032 Int'l Des: 2025-102 Owner: SPXS Country: US Constellation: starlink operational
LEOCIRCULAR

Live Position

Loading 3D Globe...

About Starlink 34019

Description loading...

Upcoming Passes

Passes for default location (London). Set your location on the main map for personalized predictions.

Altitude History

Loading altitude history...

Two-Line Element Set

1 64032U 25102L 26106.46462691 .00002284 00000-0 19912-3 0 9999
2 64032 70.0024 19.0832 0002762 271.8092 88.2750 14.98336792 51625
Epoch: Apr 16, 2026 • Age: 16 hours

Current Status

Altitude 594.7 km
Velocity 7.56 km/s
Sub-Earth Point -66.40°S, 73.77°E
Launch Date May 16, 2025
Age 0.9 years
Type internet

Technical Details

Classification Payload
Mass 575.00 kg
Dry Mass 530.00 kg
Total Mass 575.00 kg
Length 0.30 m
Diameter 4.10 m
Span 29.00 m
Shape Box + pan
Manufacturer SPXS
Bus Type Starlink V2MO
Phase Status In Orbit
Owner/State SPXS/US

Most Searched